Location: Dackenheim
(49.5215°N, 8.1854°E)
Time: 06:06:47
(UTC+00:00)

CZ-4 R/B - Pass Details

Date: 19 May 2025
Orbit: 499 x 550 km, 97.6° (Epoch: 14 June)

Event Time Altitude Azimuth Distance (km) Brightness Sun altitude
Rises 20:24:49 0° 218° (SW) 2,717 4.8 -10.0°
Reaches altitude 10° 20:28:20 10° 251° (WSW) 1,828 4.3 -10.4°
Maximum altitude 20:29:45 12° 272° (W) 1,724 4.5 -10.5°
Drops below altitude 10° 20:31:10 10° 293° (WNW) 1,828 5.1 -10.7°
Sets 20:34:41 0° 327° (NNW) 2,720 7.0 -11.1°
